Lawrenceville, GA

4:38 PM EST on December 15, 2019 (GMT -0500)
Gwinnett County-Briscoe

Weather History for KLZU - September, 2019

Change the Weather History Date:

Monday, September 30, 2019

  Actual Average (KWDR) Record (KWDR)
Temperature  
Mean Temperature 80 °F -  
Max Temperature 95 °F 77 °F 87 °F (1971)
Min Temperature 68 °F 55 °F 34 °F (1967)
Cooling Degree Days 16    
Growing Degree Days 30 (Base 50)    
Moisture  
Dew Point 68 °F    
Average Humidity 70    
Maximum Humidity 100    
Minimum Humidity 38    
Precipitation  
Precipitation 0.00 in - - ()
Sea Level Pressure  
Sea Level Pressure 30.17 in    
Wind  
Wind Speed 1 mph (ENE)    
Max Wind Speed 6 mph    
Max Gust Speed -    
Visibility 10 miles    
Events      
Averages and records for this station are not official NWS values.
T = Trace of Precipitation, MM = Missing Value Source: NWS Daily Summary

Daily Weather History Graph

Daily Weather History Graph

Search for Another Location

Airport or City:

Astronomy

Sep. 30, 2019 Rise Set
Actual Time 7:29 AM EDT 7:21 PM EDT
Civil Twilight 7:04 AM EDT 7:46 PM EDT
Nautical Twilight 6:35 AM EDT 8:15 PM EDT
Astronomical Twilight 6:06 AM EDT 8:44 PM EDT
Moon 9:28 AM EDT (9/30) 9:02 PM EDT (9/30)
Length of Visible Light 12h 42m
Length of Day
11h 52m
Waxing Crescent, 5% of the Moon is Illuminated
Sep 30
Waxing Crescent
Oct 5
First Quarter
Oct 13
Full
Oct 21
Last Quarter
Oct 27
New

Hourly Weather History & Observations

Time (EDT) Temp. Heat Index Dew Point Humidity Pressure Visibility Wind Dir Wind Speed Gust Speed Precip Events Conditions
12:56 AM 72.0 °F - 69.1 °F 91% 30.20 in 10.0 mi Calm Calm - N/A   Clear
1:56 AM 70.0 °F - 69.1 °F 97% 30.19 in 10.0 mi Calm Calm - N/A   Clear
2:56 AM 69.1 °F - 69.1 °F 100% 30.19 in 10.0 mi Calm Calm - N/A   Clear
3:56 AM 68.0 °F - 68.0 °F 100% 30.17 in 10.0 mi Calm Calm - N/A   Clear
4:56 AM 68.0 °F - 68.0 °F 100% 30.18 in 10.0 mi Calm Calm - N/A   Clear
5:56 AM 68.0 °F - 66.9 °F 96% 30.18 in 10.0 mi Calm Calm - N/A   Clear
6:56 AM 68.0 °F - 66.9 °F 96% 30.19 in 10.0 mi Calm Calm - N/A   Clear
7:56 AM 69.1 °F - 68.0 °F 96% 30.21 in 10.0 mi Calm Calm - N/A   Clear
8:56 AM 78.1 °F - 72.0 °F 81% 30.22 in 10.0 mi Calm Calm - N/A   Clear
9:56 AM 84.0 °F 89.0 °F 71.1 °F 65% 30.22 in 10.0 mi Calm Calm - N/A   Clear
10:56 AM 88.0 °F 92.9 °F 70.0 °F 55% 30.22 in 10.0 mi Calm Calm - N/A   Clear
11:56 AM 91.0 °F 96.6 °F 70.0 °F 50% 30.22 in 8.0 mi ENE 5.8 mph - N/A   Clear
12:56 PM 91.0 °F 94.3 °F 66.9 °F 45% 30.20 in 10.0 mi Variable 5.8 mph - N/A   Partly Cloudy
1:56 PM 93.0 °F 96.4 °F 66.9 °F 42% 30.18 in 10.0 mi Calm Calm - N/A   Scattered Clouds
2:56 PM 93.9 °F 97.0 °F 66.0 °F 40% 30.15 in 10.0 mi East 4.6 mph - N/A   Scattered Clouds
3:56 PM 93.9 °F 96.1 °F 64.9 °F 38% 30.13 in 10.0 mi Calm Calm - N/A   Scattered Clouds
4:56 PM 93.9 °F 97.0 °F 66.0 °F 40% 30.12 in 3.0 mi Variable 3.5 mph - N/A   Haze
5:56 PM 93.0 °F 95.0 °F 64.9 °F 39% 30.11 in 10.0 mi Variable 3.5 mph - N/A   Clear
6:56 PM 91.0 °F 93.8 °F 66.0 °F 44% 30.11 in 10.0 mi Calm Calm - N/A   Partly Cloudy
7:56 PM 82.0 °F 85.9 °F 70.0 °F 67% 30.11 in 10.0 mi Calm Calm - N/A   Clear
8:56 PM 80.1 °F 83.2 °F 70.0 °F 71% 30.12 in 10.0 mi Calm Calm - N/A   Clear
9:56 PM 77.0 °F - 70.0 °F 79% 30.12 in 10.0 mi Calm Calm - N/A   Clear
10:56 PM 78.1 °F - 69.1 °F 74% 30.14 in 10.0 mi Calm Calm - N/A   Clear
11:56 PM 75.0 °F - 70.0 °F 84% 30.14 in 10.0 mi Calm Calm - N/A   Clear